Погода в Керайкри

Новая Зеландия     35˚13′38″S   173˚56′56″E
темп.,
°C
ветер,
м/с
пор.,
м/с
влажн.,
%
обл.,
%
осадки,
мм/ч
давл.,
гПа
погр.,
м
18 января, пн
пн1801:00+15˚з25942 0.1 1008157
04:00+15˚з39935 0.0 1009318
07:00+15˚з310923 0.1 1009415
10:00+20˚юз48661 0.1 10111223
13:00+23˚зюз46453 0.1 10111365
16:00+23˚юз46430 0.0 10111418
19:00+21˚зюз46520 0.0 10101258
22:00+15˚з24790 0.0 1012194
19 января, вт
вт1901:00+14˚з28880 0.0 1012263
04:00+15˚зсз310860 0.0 1011386
07:00+15˚сз310880 0.0 1010475
10:00+21˚зсз496949 0.2 10111231
13:00+25˚зсз484953 0.2 10101424
16:00+24˚зсз585496 0.0 10091403
19:00+22˚зсз486098 0.0 10071107
22:00+19˚сз31081100 0.0 1008916
20 января, ср
ср2001:00+19˚зсз41183100 0.1 1007976
04:00+18˚з31085100 0.0 1006953
07:00+17˚з31087100 0.1 1006799
10:00+20˚з595777 0.1 10071670
13:00+21˚зюз484968 0.2 10071866
16:00+18˚зюз595293 0.1 10061669
19:00+18˚зюз475571 0.1 10061595
22:00+12˚зюз258636 0.1 1007259
21 января, чт
чт2101:00+11˚зюз248720 0.1 1008220
04:00+10˚зюз25851 0.0 1007239
07:00+10˚зюз24850 0.0 1008167
10:00+18˚зюз37530 0.0 10101482
13:00+21˚юз354110 0.1 10102131
16:00+20˚юз464592 0.0 10101937
19:00+19˚юз354774 0.0 10101942
22:00+13˚юз247721 0.0 1012200
22 января, пт
пт2201:00+11˚юз248810 0.0 1013149
04:00+10˚зюз22900 0.0 101369
07:00+11˚зюз22865 0.0 101487
10:00+18˚ю25509 0.0 10151386
13:00+19˚ююв135043 0.0 10151380
16:00+19˚ссз3458100 0.1 1015686
19:00+18˚ссв246895 0.2 1015513
22:00+15˚ююз118721 0.3 1016139